owner,sensor,date,latitude,longitude,air_temperature,qcFlag 
WAVCIS,ioos:station:WAVCIS:CSI09:1,2008-12-01T00:00:00Z,29.1015,-89.9782,14.17,11111222 
WAVCIS,ioos:station:WAVCIS:CSI09:1,2008-12-01T01:00:00Z,29.1015,-89.9782,13.78,11111222 
WAVCIS,ioos:station:WAVCIS:CSI09:1,2008-12-01T02:00:00Z,29.1015,-89.9782,13.43,11111222 
WAVCIS,ioos:station:WAVCIS:CSI09:1,2008-12-01T03:00:00Z,29.1015,-89.9782,12.53,11111222 
WAVCIS,ioos:station:WAVCIS:CSI09:1,2008-12-01T04:00:00Z,29.1015,-89.9782,12.52,11111222 
WAVCIS,ioos:station:WAVCIS:CSI09:1,2008-12-01T05:00:00Z,29.1015,-89.9782,12.74,11111222 
WAVCIS,ioos:station:WAVCIS:CSI09:1,2008-12-01T06:00:00Z,29.1015,-89.9782,13.25,11111222 
WAVCIS,ioos:station:WAVCIS:CSI09:1,2008-12-01T07:00:00Z,29.1015,-89.9782,12.51,11111222 
WAVCIS,ioos:station:WAVCIS:CSI09:1,2008-12-01T08:00:00Z,29.1015,-89.9782,12.59,11111222 
WAVCIS,ioos:station:WAVCIS:CSI09:1,2008-12-01T09:00:00Z,29.1015,-89.9782,12.79,11111222 
WAVCIS,ioos:station:WAVCIS:CSI09:1,2008-12-01T10:00:00Z,29.1015,-89.9782,12.66,11111222 
WAVCIS,ioos:station:WAVCIS:CSI09:1,2008-12-01T11:00:00Z,29.1015,-89.9782,12.72,11111222 
WAVCIS,ioos:station:WAVCIS:CSI09:1,2008-12-01T12:00:00Z,29.1015,-89.9782,12.78,11111222 
WAVCIS,ioos:station:WAVCIS:CSI09:1,2008-12-01T13:00:00Z,29.1015,-89.9782,12.44,11111222 
WAVCIS,ioos:station:WAVCIS:CSI09:1,2008-12-01T14:00:00Z,29.1015,-89.9782,12.19,11111222 
WAVCIS,ioos:station:WAVCIS:CSI09:1,2008-12-01T15:00:00Z,29.1015,-89.9782,12.39,11111222 
WAVCIS,ioos:station:WAVCIS:CSI09:1,2008-12-01T16:00:00Z,29.1015,-89.9782,13.21,11111222 
WAVCIS,ioos:station:WAVCIS:CSI09:1,2008-12-01T17:00:00Z,29.1015,-89.9782,13.07,11111222 
WAVCIS,ioos:station:WAVCIS:CSI09:1,2008-12-01T18:00:00Z,29.1015,-89.9782,12.91,11111222 
WAVCIS,ioos:station:WAVCIS:CSI09:1,2008-12-01T19:00:00Z,29.1015,-89.9782,12.88,11111222 
WAVCIS,ioos:station:WAVCIS:CSI09:1,2008-12-01T20:00:00Z,29.1015,-89.9782,12.52,11111222 
WAVCIS,ioos:station:WAVCIS:CSI09:1,2008-12-01T21:00:00Z,29.1015,-89.9782,11.85,11111222 
WAVCIS,ioos:station:WAVCIS:CSI09:1,2008-12-01T22:00:00Z,29.1015,-89.9782,11.34,11111222 
WAVCIS,ioos:station:WAVCIS:CSI09:1,2008-12-01T23:00:00Z,29.1015,-89.9782,11.2,11111222 
WAVCIS,ioos:station:WAVCIS:CSI09:1,2008-12-02T00:00:00Z,29.1015,-89.9782,11.04,11111222 
WAVCIS,ioos:station:WAVCIS:CSI09:1,2008-12-02T01:00:00Z,29.1015,-89.9782,8.65,11111222 
WAVCIS,ioos:station:WAVCIS:CSI09:1,2008-12-02T02:00:00Z,29.1015,-89.9782,9.69,11111222 
WAVCIS,ioos:station:WAVCIS:CSI09:1,2008-12-02T03:00:00Z,29.1015,-89.9782,9.31,11111222 
WAVCIS,ioos:station:WAVCIS:CSI09:1,2008-12-02T04:00:00Z,29.1015,-89.9782,9.15,11111222 
WAVCIS,ioos:station:WAVCIS:CSI09:1,2008-12-02T05:00:00Z,29.1015,-89.9782,8.58,11111222 
WAVCIS,ioos:station:WAVCIS:CSI09:1,2008-12-02T06:00:00Z,29.1015,-89.9782,8.55,11111222 
WAVCIS,ioos:station:WAVCIS:CSI09:1,2008-12-02T07:00:00Z,29.1015,-89.9782,8.23,11111222 
WAVCIS,ioos:station:WAVCIS:CSI09:1,2008-12-02T08:00:00Z,29.1015,-89.9782,7.82,11111222 
WAVCIS,ioos:station:WAVCIS:CSI09:1,2008-12-02T09:00:00Z,29.1015,-89.9782,7.58,11111222 
WAVCIS,ioos:station:WAVCIS:CSI09:1,2008-12-02T10:00:00Z,29.1015,-89.9782,7.45,11111222 
WAVCIS,ioos:station:WAVCIS:CSI09:1,2008-12-02T11:00:00Z,29.1015,-89.9782,7.36,11111222 
WAVCIS,ioos:station:WAVCIS:CSI09:1,2008-12-02T12:00:00Z,29.1015,-89.9782,7.36,11111222 
WAVCIS,ioos:station:WAVCIS:CSI09:1,2008-12-02T13:00:00Z,29.1015,-89.9782,7.69,11111222 
WAVCIS,ioos:station:WAVCIS:CSI09:1,2008-12-02T14:00:00Z,29.1015,-89.9782,9.14,11111222 
WAVCIS,ioos:station:WAVCIS:CSI09:1,2008-12-02T15:00:00Z,29.1015,-89.9782,10.09,11111222 
WAVCIS,ioos:station:WAVCIS:CSI09:1,2008-12-02T16:00:00Z,29.1015,-89.9782,11.28,11111222 
WAVCIS,ioos:station:WAVCIS:CSI09:1,2008-12-02T17:00:00Z,29.1015,-89.9782,11.18,11111222 
WAVCIS,ioos:station:WAVCIS:CSI09:1,2008-12-02T18:00:00Z,29.1015,-89.9782,11.16,11111222 
WAVCIS,ioos:station:WAVCIS:CSI09:1,2008-12-02T19:00:00Z,29.1015,-89.9782,11.71,11111222 
WAVCIS,ioos:station:WAVCIS:CSI09:1,2008-12-02T20:00:00Z,29.1015,-89.9782,11.82,11111222 
WAVCIS,ioos:station:WAVCIS:CSI09:1,2008-12-02T21:00:00Z,29.1015,-89.9782,12.7,11111222 
WAVCIS,ioos:station:WAVCIS:CSI09:1,2008-12-02T22:00:00Z,29.1015,-89.9782,13.08,11111222 
WAVCIS,ioos:station:WAVCIS:CSI09:1,2008-12-02T23:00:00Z,29.1015,-89.9782,12.92,11111222 
WAVCIS,ioos:station:WAVCIS:CSI09:1,2008-12-03T00:00:00Z,29.1015,-89.9782,13.1,11111222 
WAVCIS,ioos:station:WAVCIS:CSI09:1,2008-12-03T01:00:00Z,29.1015,-89.9782,13.5,11111222 
WAVCIS,ioos:station:WAVCIS:CSI09:1,2008-12-03T02:00:00Z,29.1015,-89.9782,13.85,11111222 
WAVCIS,ioos:station:WAVCIS:CSI09:1,2008-12-03T03:00:00Z,29.1015,-89.9782,14.31,11111222 
WAVCIS,ioos:station:WAVCIS:CSI09:1,2008-12-03T04:00:00Z,29.1015,-89.9782,14.78,11111222 
WAVCIS,ioos:station:WAVCIS:CSI09:1,2008-12-03T05:00:00Z,29.1015,-89.9782,15.1,11111222 
WAVCIS,ioos:station:WAVCIS:CSI09:1,2008-12-03T06:00:00Z,29.1015,-89.9782,15.5,11111222 
WAVCIS,ioos:station:WAVCIS:CSI09:1,2008-12-03T07:00:00Z,29.1015,-89.9782,15.84,11111222 
WAVCIS,ioos:station:WAVCIS:CSI09:1,2008-12-03T08:00:00Z,29.1015,-89.9782,16.16,11111222 
WAVCIS,ioos:station:WAVCIS:CSI09:1,2008-12-03T09:00:00Z,29.1015,-89.9782,16.39,11111222 
WAVCIS,ioos:station:WAVCIS:CSI09:1,2008-12-03T10:00:00Z,29.1015,-89.9782,16.66,11111222 
WAVCIS,ioos:station:WAVCIS:CSI09:1,2008-12-03T11:00:00Z,29.1015,-89.9782,17.01,11111222 
WAVCIS,ioos:station:WAVCIS:CSI09:1,2008-12-03T12:00:00Z,29.1015,-89.9782,17.34,11111222 
WAVCIS,ioos:station:WAVCIS:CSI09:1,2008-12-03T13:00:00Z,29.1015,-89.9782,17.7,11111222 
WAVCIS,ioos:station:WAVCIS:CSI09:1,2008-12-03T14:00:00Z,29.1015,-89.9782,18.1,11111222 
WAVCIS,ioos:station:WAVCIS:CSI09:1,2008-12-03T15:00:00Z,29.1015,-89.9782,18.46,11111222 
WAVCIS,ioos:station:WAVCIS:CSI09:1,2008-12-03T16:00:00Z,29.1015,-89.9782,18.78,11111222 
WAVCIS,ioos:station:WAVCIS:CSI09:1,2008-12-03T17:00:00Z,29.1015,-89.9782,19.05,11111222 
WAVCIS,ioos:station:WAVCIS:CSI09:1,2008-12-03T18:00:00Z,29.1015,-89.9782,19.23,11111222 
WAVCIS,ioos:station:WAVCIS:CSI09:1,2008-12-03T19:00:00Z,29.1015,-89.9782,19.5,11111222 
WAVCIS,ioos:station:WAVCIS:CSI09:1,2008-12-03T20:00:00Z,29.1015,-89.9782,19.71,11111222 
WAVCIS,ioos:station:WAVCIS:CSI09:1,2008-12-03T21:00:00Z,29.1015,-89.9782,20.23,11111222 
WAVCIS,ioos:station:WAVCIS:CSI09:1,2008-12-03T22:00:00Z,29.1015,-89.9782,20.05,11111222 
WAVCIS,ioos:station:WAVCIS:CSI09:1,2008-12-03T23:00:00Z,29.1015,-89.9782,20.13,11111222 
WAVCIS,ioos:station:WAVCIS:CSI09:1,2008-12-04T00:00:00Z,29.1015,-89.9782,20.44,11111222 
WAVCIS,ioos:station:WAVCIS:CSI09:1,2008-12-04T01:00:00Z,29.1015,-89.9782,20.36,11111222 
WAVCIS,ioos:station:WAVCIS:CSI09:1,2008-12-04T02:00:00Z,29.1015,-89.9782,20.23,11111222 
WAVCIS,ioos:station:WAVCIS:CSI09:1,2008-12-04T03:00:00Z,29.1015,-89.9782,20.11,11111222 
WAVCIS,ioos:station:WAVCIS:CSI09:1,2008-12-04T04:00:00Z,29.1015,-89.9782,20.46,11111222 
WAVCIS,ioos:station:WAVCIS:CSI09:1,2008-12-04T05:00:00Z,29.1015,-89.9782,20.31,11111222 
WAVCIS,ioos:station:WAVCIS:CSI09:1,2008-12-04T06:00:00Z,29.1015,-89.9782,20.22,11111222 
WAVCIS,ioos:station:WAVCIS:CSI09:1,2008-12-04T07:00:00Z,29.1015,-89.9782,20.6,11111222 
WAVCIS,ioos:station:WAVCIS:CSI09:1,2008-12-04T08:00:00Z,29.1015,-89.9782,21.4,11111222 
WAVCIS,ioos:station:WAVCIS:CSI09:1,2008-12-04T09:00:00Z,29.1015,-89.9782,21.49,11111222 
WAVCIS,ioos:station:WAVCIS:CSI09:1,2008-12-04T10:00:00Z,29.1015,-89.9782,20.65,11111222 
WAVCIS,ioos:station:WAVCIS:CSI09:1,2008-12-04T11:00:00Z,29.1015,-89.9782,21.26,11111222 
WAVCIS,ioos:station:WAVCIS:CSI09:1,2008-12-04T12:00:00Z,29.1015,-89.9782,20.38,11111222 
WAVCIS,ioos:station:WAVCIS:CSI09:1,2008-12-04T13:00:00Z,29.1015,-89.9782,20.24,11111222 
WAVCIS,ioos:station:WAVCIS:CSI09:1,2008-12-04T14:00:00Z,29.1015,-89.9782,21.01,11111222 
WAVCIS,ioos:station:WAVCIS:CSI09:1,2008-12-04T15:00:00Z,29.1015,-89.9782,20.43,11111222 
WAVCIS,ioos:station:WAVCIS:CSI09:1,2008-12-04T16:00:00Z,29.1015,-89.9782,19.41,11111222 
WAVCIS,ioos:station:WAVCIS:CSI09:1,2008-12-04T17:00:00Z,29.1015,-89.9782,19.08,11111222 
WAVCIS,ioos:station:WAVCIS:CSI09:1,2008-12-04T18:00:00Z,29.1015,-89.9782,18.58,11111222 
WAVCIS,ioos:station:WAVCIS:CSI09:1,2008-12-04T19:00:00Z,29.1015,-89.9782,16.8,11111222 
WAVCIS,ioos:station:WAVCIS:CSI09:1,2008-12-04T20:00:00Z,29.1015,-89.9782,17.02,11111222 
WAVCIS,ioos:station:WAVCIS:CSI09:1,2008-12-04T21:00:00Z,29.1015,-89.9782,16.62,11111222 
WAVCIS,ioos:station:WAVCIS:CSI09:1,2008-12-04T22:00:00Z,29.1015,-89.9782,15.8,11111222 
WAVCIS,ioos:station:WAVCIS:CSI09:1,2008-12-04T23:00:00Z,29.1015,-89.9782,15.63,11111222 
WAVCIS,ioos:station:WAVCIS:CSI09:1,2008-12-05T00:00:00Z,29.1015,-89.9782,13.8,11111222 
WAVCIS,ioos:station:WAVCIS:CSI09:1,2008-12-05T01:00:00Z,29.1015,-89.9782,12.91,11111222 
WAVCIS,ioos:station:WAVCIS:CSI09:1,2008-12-05T02:00:00Z,29.1015,-89.9782,12.2,11111222 
WAVCIS,ioos:station:WAVCIS:CSI09:1,2008-12-05T03:00:00Z,29.1015,-89.9782,11.5,11111222 
WAVCIS,ioos:station:WAVCIS:CSI09:1,2008-12-05T04:00:00Z,29.1015,-89.9782,10.92,11111222 
WAVCIS,ioos:station:WAVCIS:CSI09:1,2008-12-05T05:00:00Z,29.1015,-89.9782,10.68,11111222 
WAVCIS,ioos:station:WAVCIS:CSI09:1,2008-12-05T06:00:00Z,29.1015,-89.9782,10.3,11111222 
WAVCIS,ioos:station:WAVCIS:CSI09:1,2008-12-05T07:00:00Z,29.1015,-89.9782,9.74,11111222 
WAVCIS,ioos:station:WAVCIS:CSI09:1,2008-12-05T08:00:00Z,29.1015,-89.9782,9.06,11111222 
WAVCIS,ioos:station:WAVCIS:CSI09:1,2008-12-05T09:00:00Z,29.1015,-89.9782,8.31,11111222 
WAVCIS,ioos:station:WAVCIS:CSI09:1,2008-12-05T10:00:00Z,29.1015,-89.9782,7.93,11111222 
WAVCIS,ioos:station:WAVCIS:CSI09:1,2008-12-05T11:00:00Z,29.1015,-89.9782,8.04,11111222 
WAVCIS,ioos:station:WAVCIS:CSI09:1,2008-12-05T12:00:00Z,29.1015,-89.9782,7.85,11111222 
WAVCIS,ioos:station:WAVCIS:CSI09:1,2008-12-05T13:00:00Z,29.1015,-89.9782,7.41,11111222 
WAVCIS,ioos:station:WAVCIS:CSI09:1,2008-12-05T14:00:00Z,29.1015,-89.9782,7.55,11111222 
WAVCIS,ioos:station:WAVCIS:CSI09:1,2008-12-05T15:00:00Z,29.1015,-89.9782,7.59,11111222 
WAVCIS,ioos:station:WAVCIS:CSI09:1,2008-12-05T16:00:00Z,29.1015,-89.9782,8.06,11111222 
WAVCIS,ioos:station:WAVCIS:CSI09:1,2008-12-05T17:00:00Z,29.1015,-89.9782,8.54,11111222 
WAVCIS,ioos:station:WAVCIS:CSI09:1,2008-12-05T18:00:00Z,29.1015,-89.9782,8.89,11111222 
WAVCIS,ioos:station:WAVCIS:CSI09:1,2008-12-05T19:00:00Z,29.1015,-89.9782,9.62,11111222 
WAVCIS,ioos:station:WAVCIS:CSI09:1,2008-12-05T20:00:00Z,29.1015,-89.9782,9.85,11111222 
WAVCIS,ioos:station:WAVCIS:CSI09:1,2008-12-05T21:00:00Z,29.1015,-89.9782,10.81,11111222 
WAVCIS,ioos:station:WAVCIS:CSI09:1,2008-12-05T22:00:00Z,29.1015,-89.9782,11.64,11111222 
WAVCIS,ioos:station:WAVCIS:CSI09:1,2008-12-05T23:00:00Z,29.1015,-89.9782,11.88,11111222 
WAVCIS,ioos:station:WAVCIS:CSI09:1,2008-12-06T00:00:00Z,29.1015,-89.9782,12.19,11111222 
WAVCIS,ioos:station:WAVCIS:CSI09:1,2008-12-06T01:00:00Z,29.1015,-89.9782,12.07,11111222 
WAVCIS,ioos:station:WAVCIS:CSI09:1,2008-12-06T02:00:00Z,29.1015,-89.9782,12.11,11111222 
WAVCIS,ioos:station:WAVCIS:CSI09:1,2008-12-06T03:00:00Z,29.1015,-89.9782,12.23,11111222 
WAVCIS,ioos:station:WAVCIS:CSI09:1,2008-12-06T04:00:00Z,29.1015,-89.9782,12.27,11111222 
WAVCIS,ioos:station:WAVCIS:CSI09:1,2008-12-06T05:00:00Z,29.1015,-89.9782,11.74,11111222 
WAVCIS,ioos:station:WAVCIS:CSI09:1,2008-12-06T06:00:00Z,29.1015,-89.9782,11.2,11111222 
WAVCIS,ioos:station:WAVCIS:CSI09:1,2008-12-06T07:00:00Z,29.1015,-89.9782,11.09,11111222 
WAVCIS,ioos:station:WAVCIS:CSI09:1,2008-12-06T08:00:00Z,29.1015,-89.9782,10.71,11111222 
WAVCIS,ioos:station:WAVCIS:CSI09:1,2008-12-06T09:00:00Z,29.1015,-89.9782,10.06,11111222 
WAVCIS,ioos:station:WAVCIS:CSI09:1,2008-12-06T10:00:00Z,29.1015,-89.9782,10.73,11111222 
WAVCIS,ioos:station:WAVCIS:CSI09:1,2008-12-06T11:00:00Z,29.1015,-89.9782,11.18,11111222 
WAVCIS,ioos:station:WAVCIS:CSI09:1,2008-12-06T12:00:00Z,29.1015,-89.9782,11.34,11111222 
WAVCIS,ioos:station:WAVCIS:CSI09:1,2008-12-06T13:00:00Z,29.1015,-89.9782,11.42,11111222 
WAVCIS,ioos:station:WAVCIS:CSI09:1,2008-12-06T14:00:00Z,29.1015,-89.9782,11.57,11111222 
WAVCIS,ioos:station:WAVCIS:CSI09:1,2008-12-06T15:00:00Z,29.1015,-89.9782,11.47,11111222 
WAVCIS,ioos:station:WAVCIS:CSI09:1,2008-12-06T16:00:00Z,29.1015,-89.9782,11.83,11111222 
WAVCIS,ioos:station:WAVCIS:CSI09:1,2008-12-06T17:00:00Z,29.1015,-89.9782,11.75,11111222 
WAVCIS,ioos:station:WAVCIS:CSI09:1,2008-12-06T18:00:00Z,29.1015,-89.9782,12.04,11111222 
WAVCIS,ioos:station:WAVCIS:CSI09:1,2008-12-06T19:00:00Z,29.1015,-89.9782,11.97,11111222 
WAVCIS,ioos:station:WAVCIS:CSI09:1,2008-12-06T20:00:00Z,29.1015,-89.9782,12.08,11111222 
WAVCIS,ioos:station:WAVCIS:CSI09:1,2008-12-06T21:00:00Z,29.1015,-89.9782,12.37,11111222 
WAVCIS,ioos:station:WAVCIS:CSI09:1,2008-12-06T22:00:00Z,29.1015,-89.9782,13.02,11111222 
WAVCIS,ioos:station:WAVCIS:CSI09:1,2008-12-06T23:00:00Z,29.1015,-89.9782,13.36,11111222 
WAVCIS,ioos:station:WAVCIS:CSI09:1,2008-12-07T00:00:00Z,29.1015,-89.9782,13.0,11111222 
WAVCIS,ioos:station:WAVCIS:CSI09:1,2008-12-07T01:00:00Z,29.1015,-89.9782,13.0,11111222 
WAVCIS,ioos:station:WAVCIS:CSI09:1,2008-12-07T02:00:00Z,29.1015,-89.9782,12.63,11111222 
WAVCIS,ioos:station:WAVCIS:CSI09:1,2008-12-07T03:00:00Z,29.1015,-89.9782,12.05,11111222 
WAVCIS,ioos:station:WAVCIS:CSI09:1,2008-12-07T04:00:00Z,29.1015,-89.9782,11.59,11111222 
WAVCIS,ioos:station:WAVCIS:CSI09:1,2008-12-07T05:00:00Z,29.1015,-89.9782,11.22,11111222 
WAVCIS,ioos:station:WAVCIS:CSI09:1,2008-12-07T06:00:00Z,29.1015,-89.9782,11.02,11111222 
WAVCIS,ioos:station:WAVCIS:CSI09:1,2008-12-07T07:00:00Z,29.1015,-89.9782,10.51,11111222 
WAVCIS,ioos:station:WAVCIS:CSI09:1,2008-12-07T08:00:00Z,29.1015,-89.9782,10.85,11111222 
WAVCIS,ioos:station:WAVCIS:CSI09:1,2008-12-07T09:00:00Z,29.1015,-89.9782,10.78,11111222 
WAVCIS,ioos:station:WAVCIS:CSI09:1,2008-12-07T10:00:00Z,29.1015,-89.9782,10.47,11111222 
WAVCIS,ioos:station:WAVCIS:CSI09:1,2008-12-07T11:00:00Z,29.1015,-89.9782,10.43,11111222 
WAVCIS,ioos:station:WAVCIS:CSI09:1,2008-12-07T12:00:00Z,29.1015,-89.9782,10.34,11111222 
WAVCIS,ioos:station:WAVCIS:CSI09:1,2008-12-07T13:00:00Z,29.1015,-89.9782,10.46,11111222 
WAVCIS,ioos:station:WAVCIS:CSI09:1,2008-12-07T14:00:00Z,29.1015,-89.9782,10.5,11111222 
WAVCIS,ioos:station:WAVCIS:CSI09:1,2008-12-07T15:00:00Z,29.1015,-89.9782,10.3,11111222 
WAVCIS,ioos:station:WAVCIS:CSI09:1,2008-12-07T16:00:00Z,29.1015,-89.9782,10.47,11111222 
WAVCIS,ioos:station:WAVCIS:CSI09:1,2008-12-07T17:00:00Z,29.1015,-89.9782,10.91,11111222 
WAVCIS,ioos:station:WAVCIS:CSI09:1,2008-12-07T18:00:00Z,29.1015,-89.9782,11.47,11111222 
WAVCIS,ioos:station:WAVCIS:CSI09:1,2008-12-07T19:00:00Z,29.1015,-89.9782,11.78,11111222 
WAVCIS,ioos:station:WAVCIS:CSI09:1,2008-12-07T20:00:00Z,29.1015,-89.9782,12.14,11111222 
WAVCIS,ioos:station:WAVCIS:CSI09:1,2008-12-07T21:00:00Z,29.1015,-89.9782,12.35,11111222 
WAVCIS,ioos:station:WAVCIS:CSI09:1,2008-12-07T22:00:00Z,29.1015,-89.9782,12.52,11111222 
WAVCIS,ioos:station:WAVCIS:CSI09:1,2008-12-07T23:00:00Z,29.1015,-89.9782,12.21,11111222 
WAVCIS,ioos:station:WAVCIS:CSI09:1,2008-12-08T00:00:00Z,29.1015,-89.9782,12.22,11111222 
WAVCIS,ioos:station:WAVCIS:CSI09:1,2008-12-08T01:00:00Z,29.1015,-89.9782,12.48,11111222 
WAVCIS,ioos:station:WAVCIS:CSI09:1,2008-12-08T02:00:00Z,29.1015,-89.9782,12.48,11111222 
WAVCIS,ioos:station:WAVCIS:CSI09:1,2008-12-08T03:00:00Z,29.1015,-89.9782,12.7,11111222 
WAVCIS,ioos:station:WAVCIS:CSI09:1,2008-12-08T04:00:00Z,29.1015,-89.9782,12.86,11111222 
WAVCIS,ioos:station:WAVCIS:CSI09:1,2008-12-08T05:00:00Z,29.1015,-89.9782,13.08,11111222 
WAVCIS,ioos:station:WAVCIS:CSI09:1,2008-12-08T06:00:00Z,29.1015,-89.9782,13.34,11111222 
WAVCIS,ioos:station:WAVCIS:CSI09:1,2008-12-08T07:00:00Z,29.1015,-89.9782,13.8,11111222 
WAVCIS,ioos:station:WAVCIS:CSI09:1,2008-12-08T08:00:00Z,29.1015,-89.9782,14.16,11111222 
WAVCIS,ioos:station:WAVCIS:CSI09:1,2008-12-08T09:00:00Z,29.1015,-89.9782,14.65,11111222 
WAVCIS,ioos:station:WAVCIS:CSI09:1,2008-12-08T10:00:00Z,29.1015,-89.9782,15.72,11111222 
WAVCIS,ioos:station:WAVCIS:CSI09:1,2008-12-08T11:00:00Z,29.1015,-89.9782,16.31,11111222 
WAVCIS,ioos:station:WAVCIS:CSI09:1,2008-12-08T12:00:00Z,29.1015,-89.9782,16.74,11111222 
WAVCIS,ioos:station:WAVCIS:CSI09:1,2008-12-08T13:00:00Z,29.1015,-89.9782,17.14,11111222 
WAVCIS,ioos:station:WAVCIS:CSI09:1,2008-12-08T14:00:00Z,29.1015,-89.9782,17.68,11111222 
WAVCIS,ioos:station:WAVCIS:CSI09:1,2008-12-08T15:00:00Z,29.1015,-89.9782,18.32,11111222 
WAVCIS,ioos:station:WAVCIS:CSI09:1,2008-12-08T16:00:00Z,29.1015,-89.9782,18.54,11111222 
WAVCIS,ioos:station:WAVCIS:CSI09:1,2008-12-08T17:00:00Z,29.1015,-89.9782,18.82,11111222 
WAVCIS,ioos:station:WAVCIS:CSI09:1,2008-12-08T18:00:00Z,29.1015,-89.9782,18.85,11111222 
WAVCIS,ioos:station:WAVCIS:CSI09:1,2008-12-08T19:00:00Z,29.1015,-89.9782,19.03,11111222 
WAVCIS,ioos:station:WAVCIS:CSI09:1,2008-12-08T20:00:00Z,29.1015,-89.9782,19.26,11111222 
WAVCIS,ioos:station:WAVCIS:CSI09:1,2008-12-08T21:00:00Z,29.1015,-89.9782,19.49,11111222 
WAVCIS,ioos:station:WAVCIS:CSI09:1,2008-12-08T22:00:00Z,29.1015,-89.9782,19.48,11111222 
WAVCIS,ioos:station:WAVCIS:CSI09:1,2008-12-08T23:00:00Z,29.1015,-89.9782,19.33,11111222 
WAVCIS,ioos:station:WAVCIS:CSI09:1,2008-12-09T00:00:00Z,29.1015,-89.9782,19.42,11111222 
WAVCIS,ioos:station:WAVCIS:CSI09:1,2008-12-09T01:00:00Z,29.1015,-89.9782,19.47,11111222 
WAVCIS,ioos:station:WAVCIS:CSI09:1,2008-12-09T02:00:00Z,29.1015,-89.9782,19.7,11111222 
WAVCIS,ioos:station:WAVCIS:CSI09:1,2008-12-09T03:00:00Z,29.1015,-89.9782,19.76,11111222 
WAVCIS,ioos:station:WAVCIS:CSI09:1,2008-12-09T04:00:00Z,29.1015,-89.9782,19.88,11111222 
WAVCIS,ioos:station:WAVCIS:CSI09:1,2008-12-09T05:00:00Z,29.1015,-89.9782,19.91,11111222 
WAVCIS,ioos:station:WAVCIS:CSI09:1,2008-12-09T06:00:00Z,29.1015,-89.9782,19.93,11111222 
WAVCIS,ioos:station:WAVCIS:CSI09:1,2008-12-09T07:00:00Z,29.1015,-89.9782,20.13,11111222 
WAVCIS,ioos:station:WAVCIS:CSI09:1,2008-12-09T08:00:00Z,29.1015,-89.9782,20.35,11111222 
WAVCIS,ioos:station:WAVCIS:CSI09:1,2008-12-09T09:00:00Z,29.1015,-89.9782,20.46,11111222 
WAVCIS,ioos:station:WAVCIS:CSI09:1,2008-12-09T10:00:00Z,29.1015,-89.9782,20.56,11111222 
WAVCIS,ioos:station:WAVCIS:CSI09:1,2008-12-09T11:00:00Z,29.1015,-89.9782,20.57,11111222 
WAVCIS,ioos:station:WAVCIS:CSI09:1,2008-12-09T12:00:00Z,29.1015,-89.9782,20.73,11111222 
WAVCIS,ioos:station:WAVCIS:CSI09:1,2008-12-09T13:00:00Z,29.1015,-89.9782,20.93,11111222 
WAVCIS,ioos:station:WAVCIS:CSI09:1,2008-12-09T14:00:00Z,29.1015,-89.9782,20.95,11111222 
WAVCIS,ioos:station:WAVCIS:CSI09:1,2008-12-09T15:00:00Z,29.1015,-89.9782,21.16,11111222 
WAVCIS,ioos:station:WAVCIS:CSI09:1,2008-12-09T16:00:00Z,29.1015,-89.9782,21.41,11111222 
WAVCIS,ioos:station:WAVCIS:CSI09:1,2008-12-09T17:00:00Z,29.1015,-89.9782,21.63,11111222 
WAVCIS,ioos:station:WAVCIS:CSI09:1,2008-12-09T18:00:00Z,29.1015,-89.9782,21.83,11111222 
WAVCIS,ioos:station:WAVCIS:CSI09:1,2008-12-09T19:00:00Z,29.1015,-89.9782,21.6,11111222 
WAVCIS,ioos:station:WAVCIS:CSI09:1,2008-12-09T20:00:00Z,29.1015,-89.9782,21.99,11111222 
WAVCIS,ioos:station:WAVCIS:CSI09:1,2008-12-09T21:00:00Z,29.1015,-89.9782,21.99,11111222 
WAVCIS,ioos:station:WAVCIS:CSI09:1,2008-12-09T22:00:00Z,29.1015,-89.9782,22.02,11111222 
WAVCIS,ioos:station:WAVCIS:CSI09:1,2008-12-09T23:00:00Z,29.1015,-89.9782,21.83,11111222 
WAVCIS,ioos:station:WAVCIS:CSI09:1,2008-12-10T00:00:00Z,29.1015,-89.9782,21.69,11111222 
WAVCIS,ioos:station:WAVCIS:CSI09:1,2008-12-10T01:00:00Z,29.1015,-89.9782,21.71,11111222 
WAVCIS,ioos:station:WAVCIS:CSI09:1,2008-12-10T02:00:00Z,29.1015,-89.9782,21.81,11111222 
WAVCIS,ioos:station:WAVCIS:CSI09:1,2008-12-10T03:00:00Z,29.1015,-89.9782,21.69,11111222 
WAVCIS,ioos:station:WAVCIS:CSI09:1,2008-12-10T04:00:00Z,29.1015,-89.9782,21.66,11111222 
WAVCIS,ioos:station:WAVCIS:CSI09:1,2008-12-10T05:00:00Z,29.1015,-89.9782,22.19,11111222 
WAVCIS,ioos:station:WAVCIS:CSI09:1,2008-12-10T06:00:00Z,29.1015,-89.9782,21.34,11111222 
WAVCIS,ioos:station:WAVCIS:CSI09:1,2008-12-10T07:00:00Z,29.1015,-89.9782,21.22,11111222 
WAVCIS,ioos:station:WAVCIS:CSI09:1,2008-12-10T08:00:00Z,29.1015,-89.9782,21.29,11111222 
WAVCIS,ioos:station:WAVCIS:CSI09:1,2008-12-10T09:00:00Z,29.1015,-89.9782,21.01,11111222 
WAVCIS,ioos:station:WAVCIS:CSI09:1,2008-12-10T10:00:00Z,29.1015,-89.9782,19.98,11111222 
WAVCIS,ioos:station:WAVCIS:CSI09:1,2008-12-10T11:00:00Z,29.1015,-89.9782,19.73,11111222 
WAVCIS,ioos:station:WAVCIS:CSI09:1,2008-12-10T12:00:00Z,29.1015,-89.9782,15.86,11111222 
WAVCIS,ioos:station:WAVCIS:CSI09:1,2008-12-10T13:00:00Z,29.1015,-89.9782,15.44,11111222 
WAVCIS,ioos:station:WAVCIS:CSI09:1,2008-12-10T14:00:00Z,29.1015,-89.9782,15.38,11111222 
WAVCIS,ioos:station:WAVCIS:CSI09:1,2008-12-10T15:00:00Z,29.1015,-89.9782,15.07,11111222 
WAVCIS,ioos:station:WAVCIS:CSI09:1,2008-12-10T16:00:00Z,29.1015,-89.9782,15.31,11111222 
WAVCIS,ioos:station:WAVCIS:CSI09:1,2008-12-10T17:00:00Z,29.1015,-89.9782,15.33,11111222 
WAVCIS,ioos:station:WAVCIS:CSI09:1,2008-12-10T18:00:00Z,29.1015,-89.9782,15.1,11111222 
WAVCIS,ioos:station:WAVCIS:CSI09:1,2008-12-10T19:00:00Z,29.1015,-89.9782,12.89,11111222 
WAVCIS,ioos:station:WAVCIS:CSI09:1,2008-12-10T20:00:00Z,29.1015,-89.9782,12.18,11111222 
WAVCIS,ioos:station:WAVCIS:CSI09:1,2008-12-10T21:00:00Z,29.1015,-89.9782,11.92,11111222 
WAVCIS,ioos:station:WAVCIS:CSI09:1,2008-12-10T22:00:00Z,29.1015,-89.9782,11.2,11111222 
WAVCIS,ioos:station:WAVCIS:CSI09:1,2008-12-10T23:00:00Z,29.1015,-89.9782,11.22,11111222 
WAVCIS,ioos:station:WAVCIS:CSI09:1,2008-12-11T00:00:00Z,29.1015,-89.9782,10.0,11111222 
WAVCIS,ioos:station:WAVCIS:CSI09:1,2008-12-11T01:00:00Z,29.1015,-89.9782,9.08,11111222 
WAVCIS,ioos:station:WAVCIS:CSI09:1,2008-12-11T02:00:00Z,29.1015,-89.9782,8.14,11111222 
WAVCIS,ioos:station:WAVCIS:CSI09:1,2008-12-11T03:00:00Z,29.1015,-89.9782,8.25,11111222 
WAVCIS,ioos:station:WAVCIS:CSI09:1,2008-12-11T04:00:00Z,29.1015,-89.9782,8.0,11111222 
WAVCIS,ioos:station:WAVCIS:CSI09:1,2008-12-11T05:00:00Z,29.1015,-89.9782,7.43,11111222 
WAVCIS,ioos:station:WAVCIS:CSI09:1,2008-12-11T06:00:00Z,29.1015,-89.9782,7.2,11111222 
WAVCIS,ioos:station:WAVCIS:CSI09:1,2008-12-11T07:00:00Z,29.1015,-89.9782,7.16,11111222 
WAVCIS,ioos:station:WAVCIS:CSI09:1,2008-12-11T08:00:00Z,29.1015,-89.9782,6.96,11111222 
WAVCIS,ioos:station:WAVCIS:CSI09:1,2008-12-11T09:00:00Z,29.1015,-89.9782,6.59,11111222 
WAVCIS,ioos:station:WAVCIS:CSI09:1,2008-12-11T10:00:00Z,29.1015,-89.9782,6.57,11111222 
WAVCIS,ioos:station:WAVCIS:CSI09:1,2008-12-11T11:00:00Z,29.1015,-89.9782,6.6,11111222 
WAVCIS,ioos:station:WAVCIS:CSI09:1,2008-12-11T12:00:00Z,29.1015,-89.9782,6.28,11111222 
WAVCIS,ioos:station:WAVCIS:CSI09:1,2008-12-11T13:00:00Z,29.1015,-89.9782,6.008,11111222 
WAVCIS,ioos:station:WAVCIS:CSI09:1,2008-12-11T14:00:00Z,29.1015,-89.9782,5.943,11111222 
WAVCIS,ioos:station:WAVCIS:CSI09:1,2008-12-11T15:00:00Z,29.1015,-89.9782,5.188,11111222 
WAVCIS,ioos:station:WAVCIS:CSI09:1,2008-12-11T16:00:00Z,29.1015,-89.9782,4.548,11111222 
WAVCIS,ioos:station:WAVCIS:CSI09:1,2008-12-11T17:00:00Z,29.1015,-89.9782,4.444,11111222 
WAVCIS,ioos:station:WAVCIS:CSI09:1,2008-12-11T18:00:00Z,29.1015,-89.9782,4.586,11111222 
WAVCIS,ioos:station:WAVCIS:CSI09:1,2008-12-11T19:00:00Z,29.1015,-89.9782,4.572,11111222 
WAVCIS,ioos:station:WAVCIS:CSI09:1,2008-12-11T20:00:00Z,29.1015,-89.9782,4.878,11111222 
WAVCIS,ioos:station:WAVCIS:CSI09:1,2008-12-11T21:00:00Z,29.1015,-89.9782,5.555,11111222 
WAVCIS,ioos:station:WAVCIS:CSI09:1,2008-12-11T22:00:00Z,29.1015,-89.9782,5.368,11111222 
WAVCIS,ioos:station:WAVCIS:CSI09:1,2008-12-11T23:00:00Z,29.1015,-89.9782,5.327,11111222 
WAVCIS,ioos:station:WAVCIS:CSI09:1,2008-12-12T00:00:00Z,29.1015,-89.9782,5.856,11111222 
WAVCIS,ioos:station:WAVCIS:CSI09:1,2008-12-12T01:00:00Z,29.1015,-89.9782,6.43,11111222 
WAVCIS,ioos:station:WAVCIS:CSI09:1,2008-12-12T02:00:00Z,29.1015,-89.9782,6.68,11111222 
WAVCIS,ioos:station:WAVCIS:CSI09:1,2008-12-12T03:00:00Z,29.1015,-89.9782,7.21,11111222 
WAVCIS,ioos:station:WAVCIS:CSI09:1,2008-12-12T04:00:00Z,29.1015,-89.9782,7.46,11111222 